VIR75 EGCC-KMCO

Flight info

Callsign VIR75
Flight time N/A
Altitude 32000
Route DCT EKLAD UY53 WAL L10 PENIL M144 BAGSO DCT NEBIN/M085F320 DCT 5330N02000W 5330N03000W 53N040W 52N050W DCT TUDEP DCT CARAC M201 VIRST Y494 WHOOS/N0499F320 Y494 AYCHB Y493 JENKS DCT 30N080W DCT OMN BITHO7
Aircraft B742/H-SDFHIRWXY/L

Departure

Time 2026-05-03 21:02
Airport Manchester Airport (EGCC)

Arrival

Time N/A
Airport Orlando International Airport (KMCO)
Time Latitude Longitude Altitude Speed Heading
2026-05-03 20:15 53.36632 -2.28068 233 ft 0 kts 44°
2026-05-03 20:42 53.36628 -2.28074 233 ft 2 kts 42°
2026-05-03 20:42 53.36616 -2.28090 233 ft 2 kts 39°
2026-05-03 20:42 53.36605 -2.28106 233 ft 2 kts 41°
2026-05-03 20:42 53.36593 -2.28123 233 ft 2 kts 41°
2026-05-03 20:43 53.36582 -2.28139 233 ft 2 kts 40°
2026-05-03 20:43 53.36570 -2.28155 233 ft 2 kts 41°
2026-05-03 20:43 53.36559 -2.28172 233 ft 2 kts 41°
2026-05-03 20:43 53.36548 -2.28188 233 ft 2 kts 44°
2026-05-03 20:44 53.36538 -2.28207 233 ft 2 kts 52°
2026-05-03 20:44 53.36532 -2.28220 233 ft 1 kts 50°
2026-05-03 20:44 53.36528 -2.28226 233 ft 0 kts 46°
2026-05-03 20:50 53.36529 -2.28226 233 ft 0 kts 46°
2026-05-03 20:50 53.36531 -2.28221 233 ft 1 kts 46°
2026-05-03 20:50 53.36550 -2.28188 233 ft 5 kts 59°
2026-05-03 20:51 53.36541 -2.28109 233 ft 8 kts 127°
2026-05-03 20:51 53.36500 -2.28039 233 ft 7 kts 144°
2026-05-03 20:51 53.36480 -2.28011 233 ft 0 kts 137°
2026-05-03 20:52 53.36477 -2.28008 233 ft 1 kts 137°
2026-05-03 20:52 53.36464 -2.27987 233 ft 4 kts 137°
2026-05-03 20:53 53.36436 -2.27944 233 ft 6 kts 140°
2026-05-03 20:53 53.36385 -2.27948 233 ft 9 kts 214°
2026-05-03 20:53 53.36331 -2.28031 233 ft 12 kts 223°
2026-05-03 20:53 53.36260 -2.28078 233 ft 12 kts 197°
2026-05-03 20:54 53.36174 -2.28064 233 ft 13 kts 181°
2026-05-03 20:54 53.36027 -2.27975 233 ft 14 kts 145°
2026-05-03 20:54 53.35935 -2.27884 233 ft 15 kts 156°
2026-05-03 20:55 53.35835 -2.27863 233 ft 13 kts 184°
2026-05-03 20:55 53.35745 -2.27876 233 ft 12 kts 184°
2026-05-03 20:55 53.35667 -2.27887 233 ft 10 kts 191°
2026-05-03 20:55 53.35607 -2.27938 233 ft 8 kts 223°
2026-05-03 20:56 53.35570 -2.28008 233 ft 7 kts 230°
2026-05-03 20:56 53.35536 -2.28069 233 ft 7 kts 222°
2026-05-03 20:56 53.35477 -2.28130 233 ft 12 kts 204°
2026-05-03 20:56 53.35377 -2.28173 233 ft 17 kts 186°
2026-05-03 20:57 53.35255 -2.28261 233 ft 22 kts 224°
2026-05-03 20:57 53.35146 -2.28485 233 ft 25 kts 231°
2026-05-03 20:57 53.35039 -2.28697 233 ft 22 kts 229°
2026-05-03 20:57 53.34935 -2.28875 233 ft 20 kts 226°
2026-05-03 20:58 53.34846 -2.29036 233 ft 17 kts 227°
2026-05-03 20:58 53.34771 -2.29180 233 ft 15 kts 230°
2026-05-03 20:58 53.34705 -2.29300 233 ft 13 kts 216°
2026-05-03 20:58 53.34611 -2.29342 233 ft 14 kts 173°
2026-05-03 20:59 53.34542 -2.29244 233 ft 13 kts 88°
2026-05-03 20:59 53.34582 -2.29127 233 ft 10 kts 51°
2026-05-03 20:59 53.34586 -2.29119 233 ft 0 kts 51°
2026-05-03 21:00 53.34607 -2.29078 233 ft 20 kts 51°
2026-05-03 21:00 53.34812 -2.28659 233 ft 71 kts 51°
2026-05-03 21:01 53.35226 -2.27803 233 ft 117 kts 51°
2026-05-03 21:01 53.35837 -2.26545 234 ft 158 kts 50°
2026-05-03 21:01 53.36587 -2.25011 404 ft 175 kts 50°
2026-05-03 21:01 53.37353 -2.23456 846 ft 175 kts 50°
2026-05-03 21:02 53.38149 -2.21789 1067 ft 193 kts 49°
2026-05-03 21:02 53.39277 -2.20482 1371 ft 209 kts 14°
2026-05-03 21:02 53.40750 -2.20685 1714 ft 230 kts 338°
2026-05-03 21:02 53.42005 -2.22528 2123 ft 253 kts 303°
2026-05-03 21:03 53.42568 -2.25354 2641 ft 265 kts 286°
2026-05-03 21:03 53.43169 -2.28278 3250 ft 268 kts 288°
2026-05-03 21:03 53.43638 -2.31326 3910 ft 272 kts 286°
2026-05-03 21:03 53.44068 -2.34367 4536 ft 263 kts 285°
2026-05-03 21:04 53.44488 -2.37293 4982 ft 260 kts 285°
2026-05-03 21:04 53.44920 -2.40242 5380 ft 260 kts 285°
2026-05-03 21:04 53.45361 -2.43201 5776 ft 260 kts 285°
2026-05-03 21:04 53.45799 -2.46108 6167 ft 260 kts 285°
2026-05-03 21:05 53.46244 -2.49060 6554 ft 260 kts 285°
2026-05-03 21:05 53.46687 -2.51991 6905 ft 262 kts 285°
2026-05-03 21:05 53.47133 -2.54962 7220 ft 265 kts 285°
2026-05-03 21:05 53.47593 -2.58003 7502 ft 270 kts 285°
2026-05-03 21:06 53.48067 -2.61112 7745 ft 277 kts 285°
2026-05-03 21:06 53.48547 -2.64254 8091 ft 279 kts 285°
2026-05-03 21:06 53.49023 -2.67389 8498 ft 279 kts 285°
2026-05-03 21:06 53.49504 -2.70562 8853 ft 281 kts 285°
2026-05-03 21:07 53.49983 -2.73743 9209 ft 282 kts 285°
2026-05-03 21:07 53.50444 -2.76950 9558 ft 284 kts 281°
2026-05-03 21:07 53.50740 -2.80225 9874 ft 286 kts 278°
2026-05-03 21:07 53.51003 -2.83587 10194 ft 288 kts 278°
2026-05-03 21:08 53.51268 -2.86894 10458 ft 293 kts 278°
2026-05-03 21:08 53.51552 -2.90337 10565 ft 303 kts 278°
2026-05-03 21:08 53.51850 -2.93930 10681 ft 314 kts 278°
2026-05-03 21:08 53.52154 -2.97589 10818 ft 325 kts 278°
2026-05-03 21:09 53.52471 -3.01416 10941 ft 337 kts 278°
2026-05-03 21:09 53.52800 -3.05406 11128 ft 347 kts 278°
2026-05-03 21:09 53.53130 -3.09426 11681 ft 345 kts 278°
2026-05-03 21:09 53.53456 -3.13425 12143 ft 346 kts 278°
2026-05-03 21:10 53.53782 -3.17425 12544 ft 348 kts 278°
2026-05-03 21:10 53.54106 -3.21420 12962 ft 350 kts 278°
2026-05-03 21:10 53.54438 -3.25527 13335 ft 353 kts 278°
2026-05-03 21:10 53.54763 -3.29572 13698 ft 356 kts 278°
2026-05-03 21:11 53.55093 -3.33690 14071 ft 358 kts 278°
2026-05-03 21:11 53.55425 -3.37853 14442 ft 360 kts 279°
2026-05-03 21:11 53.55759 -3.42065 14825 ft 362 kts 278°
2026-05-03 21:11 53.56092 -3.46272 15191 ft 364 kts 278°
2026-05-03 21:12 53.56422 -3.50462 15522 ft 366 kts 278°
2026-05-03 21:12 53.56757 -3.54734 15879 ft 368 kts 278°
2026-05-03 21:12 53.57088 -3.58981 16228 ft 370 kts 278°
2026-05-03 21:12 53.57418 -3.63232 16573 ft 371 kts 278°
2026-05-03 21:13 53.57744 -3.67528 16908 ft 373 kts 277°
2026-05-03 21:13 53.58055 -3.71913 17260 ft 375 kts 277°
2026-05-03 21:13 53.58366 -3.76227 17577 ft 377 kts 278°
2026-05-03 21:13 53.58689 -3.80602 17882 ft 380 kts 278°
2026-05-03 21:14 53.59024 -3.85077 18168 ft 382 kts 278°
2026-05-03 21:14 53.59358 -3.89508 18492 ft 384 kts 278°
2026-05-03 21:14 53.59692 -3.93974 18847 ft 385 kts 278°
2026-05-03 21:14 53.60027 -3.98454 19161 ft 387 kts 278°
2026-05-03 21:15 53.60361 -4.02964 19479 ft 389 kts 278°
2026-05-03 21:15 53.60693 -4.07458 19787 ft 391 kts 278°
2026-05-03 21:15 53.61029 -4.12036 20093 ft 393 kts 278°
2026-05-03 21:15 53.61362 -4.16597 20392 ft 395 kts 278°
2026-05-03 21:16 53.61695 -4.21171 20699 ft 397 kts 278°
2026-05-03 21:16 53.62030 -4.25807 21010 ft 399 kts 278°
2026-05-03 21:16 53.62359 -4.30390 21310 ft 400 kts 278°
2026-05-03 21:16 53.62693 -4.35053 21631 ft 402 kts 278°
2026-05-03 21:17 53.63025 -4.39731 21910 ft 404 kts 278°
2026-05-03 21:17 53.63249 -4.42894 22100 ft 405 kts 278°
2026-05-03 21:17 53.63691 -4.49159 22496 ft 407 kts 278°
2026-05-03 21:17 53.64024 -4.53909 22763 ft 409 kts 278°
2026-05-03 21:18 53.64354 -4.58650 23040 ft 411 kts 278°
2026-05-03 21:18 53.64686 -4.63456 23323 ft 412 kts 278°
2026-05-03 21:18 53.65008 -4.68246 23586 ft 414 kts 277°
2026-05-03 21:18 53.65307 -4.73030 23842 ft 415 kts 277°
2026-05-03 21:19 53.65613 -4.77872 24099 ft 417 kts 277°
2026-05-03 21:19 53.65928 -4.82740 24331 ft 419 kts 277°
2026-05-03 21:19 53.66295 -4.87606 24536 ft 421 kts 277°
2026-05-03 21:19 53.66478 -4.92572 24769 ft 423 kts 274°
2026-05-03 21:20 53.66573 -4.97500 24974 ft 425 kts 273°
2026-05-03 21:20 53.66675 -5.02478 25197 ft 427 kts 274°
2026-05-03 21:20 53.66800 -5.07471 25437 ft 428 kts 274°
2026-05-03 21:20 53.66941 -5.12441 25681 ft 429 kts 275°
2026-05-03 21:21 53.67092 -5.17497 25890 ft 431 kts 275°
2026-05-03 21:21 53.67243 -5.22518 26101 ft 433 kts 275°
2026-05-03 21:21 53.67394 -5.27597 26314 ft 434 kts 275°
2026-05-03 21:21 53.67544 -5.32710 26533 ft 436 kts 275°
2026-05-03 21:22 53.67690 -5.37751 26737 ft 437 kts 275°
2026-05-03 21:22 53.67838 -5.42893 26920 ft 439 kts 275°
2026-05-03 21:22 53.67983 -5.48049 27092 ft 441 kts 275°
2026-05-03 21:22 53.68117 -5.53219 27270 ft 443 kts 275°
2026-05-03 21:23 53.68229 -5.58359 27418 ft 445 kts 275°
2026-05-03 21:23 53.68334 -5.63635 27602 ft 447 kts 275°
2026-05-03 21:23 53.68427 -5.68803 27763 ft 449 kts 274°
2026-05-03 21:23 53.68498 -5.74074 27932 ft 450 kts 274°
2026-05-03 21:24 53.68572 -5.79331 28084 ft 452 kts 274°
2026-05-03 21:24 53.68655 -5.84666 28260 ft 453 kts 274°
2026-05-03 21:24 53.68745 -5.89969 28442 ft 454 kts 275°
2026-05-03 21:24 53.68837 -5.95285 28589 ft 456 kts 275°
2026-05-03 21:25 53.68931 -6.00627 28750 ft 457 kts 275°
2026-05-03 21:25 53.69022 -6.05923 28883 ft 459 kts 275°
2026-05-03 21:25 53.69114 -6.11351 28996 ft 461 kts 275°
2026-05-03 21:25 53.69203 -6.16784 29144 ft 462 kts 275°
2026-05-03 21:26 53.69289 -6.22177 29278 ft 464 kts 275°
2026-05-03 21:26 53.69373 -6.27613 29425 ft 465 kts 275°
2026-05-03 21:26 53.69455 -6.33094 29550 ft 467 kts 275°
2026-05-03 21:26 53.69534 -6.38555 29807 ft 464 kts 276°
2026-05-03 21:27 53.69610 -6.43999 30148 ft 460 kts 276°
2026-05-03 21:27 53.69681 -6.49338 30391 ft 459 kts 276°
2026-05-03 21:27 53.69823 -6.60183 30520 ft 464 kts 276°
2026-05-03 21:28 53.69890 -6.65610 30682 ft 463 kts 275°
2026-05-03 21:28 53.69935 -6.71073 30698 ft 467 kts 275°
2026-05-03 21:28 53.69966 -6.76510 30800 ft 468 kts 275°
2026-05-03 21:28 53.70001 -6.81989 30945 ft 468 kts 275°
2026-05-03 21:29 53.70091 -6.93001 31266 ft 466 kts 276°
2026-05-03 21:29 53.70139 -6.98441 31630 ft 460 kts 276°
2026-05-03 21:29 53.70186 -7.03770 31889 ft 456 kts 276°
2026-05-03 21:30 53.70232 -7.09130 31991 ft 457 kts 276°
2026-05-03 21:30 53.70278 -7.14473 32063 ft 458 kts 276°
2026-05-03 21:30 53.70320 -7.19827 32195 ft 457 kts 275°
2026-05-03 21:30 53.70361 -7.25235 32053 ft 462 kts 276°
2026-05-03 21:31 53.70433 -7.36064 31985 ft 463 kts 276°
2026-05-03 21:31 53.70493 -7.46919 31992 ft 460 kts 276°
2026-05-03 21:32 53.70545 -7.57730 31989 ft 464 kts 276°
2026-05-03 21:32 53.70583 -7.68704 31994 ft 469 kts 275°
2026-05-03 21:33 53.70557 -7.79685 31995 ft 473 kts 275°
2026-05-03 21:33 53.70552 -7.90887 31997 ft 477 kts 275°
2026-05-03 21:34 53.70563 -8.02208 31998 ft 488 kts 275°
2026-05-03 21:34 53.70566 -8.13686 31996 ft 492 kts 275°
2026-05-03 21:35 53.70555 -8.25169 31992 ft 489 kts 275°
2026-05-03 21:35 53.70536 -8.36653 31993 ft 488 kts 275°
2026-05-03 21:36 53.70508 -8.48079 31995 ft 490 kts 275°
2026-05-03 21:36 53.70468 -8.59601 31994 ft 492 kts 275°
2026-05-03 21:37 53.70397 -8.71149 31994 ft 492 kts 274°
2026-05-03 21:37 53.70272 -8.82646 31994 ft 491 kts 274°
2026-05-03 21:38 53.70172 -8.94199 31997 ft 491 kts 274°
2026-05-03 21:38 53.70083 -9.05723 32000 ft 492 kts 274°
2026-05-03 21:39 53.69988 -9.17193 32014 ft 492 kts 274°
2026-05-03 21:39 53.69881 -9.28715 32019 ft 490 kts 274°
2026-05-03 21:40 53.69764 -9.40185 32022 ft 491 kts 274°
2026-05-03 21:40 53.69636 -9.51750 32020 ft 493 kts 275°
2026-05-03 21:41 53.69495 -9.63335 32018 ft 493 kts 275°